[[{"header":{"parameterUnit":"m.s-1","parameterCategory":1,"la1":30.2991,"la2":30.254,"lo1":-89.0895,"lo2":-89.0444,"dy":0.0017,"dx":0.0017,"nx":28,"ny":28,"refTime":"2025-02-08T03:00:00:Z","depth":0,"parameterNumber":2,"parameterNumberName":"U-component_of_WINDS"},"data":[0,0,0,0,0,0,0,0,0,0,0,0,0,0,0,0,0,0,0,0,0,0,0,0,0,0,0,0,0,0,0,0,0,0,0,0,0,0,0,0,0,0,0,0,0,0,0,0,0,0,0,0,0,0,0,0,0,0,-0.687,-0.687,0,-0.6809,-0.6808,-0.6807,-0.6774,-0.6774,-0.6773,-0.6773,-0.671,-0.6708,-0.6707,0,0,0,0,0,0,0,0,0,0,0,0,0,-0.6958,-0.6957,-0.687,-0.687,-0.6869,-0.6809,-0.6808,-0.6807,-0.6774,-0.6774,-0.6773,-0.6773,-0.671,-0.6709,-0.6707,0,0,0,0,0,0,0,0,0,0,0,0,0,-0.6911,-0.6956,-0.687,-0.6845,-0.6842,-0.6809,-0.6808,-0.6807,-0.6774,-0.6774,-0.6773,-0.6773,-0.6711,-0.6709,-0.6706,-0.6694,0,0,-0.6699,-0.6698,0,0,0,0,0,0,0,0,-0.6913,-0.6907,-0.6849,-0.6846,-0.6843,-0.6799,-0.6816,-0.6769,-0.6774,-0.68,-0.6773,-0.6773,-0.674,-0.6735,-0.6724,-0.6691,-0.6689,-0.6699,-0.6697,-0.6696,-0.6696,0,0,0,0,0,0,0,-0.6917,-0.691,-0.6846,-0.6849,-0.6845,-0.6836,-0.6829,-0.6807,-0.6771,-0.6797,-0.6795,-0.6788,-0.6738,-0.6726,-0.6722,-0.6688,-0.6699,-0.6697,-0.6695,-0.6694,-0.6642,-0.6642,0,0,0,0,0,0,-0.6924,-0.6913,-0.6848,-0.6844,-0.6879,-0.6835,-0.6827,-0.6813,-0.6771,-0.6765,-0.6788,-0.6787,-0.673,-0.6725,-0.672,-0.6702,-0.6696,-0.6694,-0.6693,-0.6642,-0.6642,-0.6643,0,0,0,0,0,0,-0.6926,-0.6919,-0.685,-0.6878,-0.6868,-0.6833,-0.6818,-0.6812,-0.68,-0.6764,-0.6758,-0.6783,-0.673,-0.6723,-0.6701,-0.67,-0.6693,-0.6691,-0.6642,-0.6642,-0.6642,-0.6668,0,0,0,0,0,0,-0.6929,-0.692,-0.6915,-0.6878,-0.6867,-0.6833,-0.6818,-0.6811,-0.6796,-0.6794,-0.6757,-0.6751,-0.6729,-0.6705,-0.6699,-0.6696,-0.6689,-0.6642,-0.6642,-0.6642,-0.6667,-0.6669,-0.6671,0,0,0,0,0,-0.6932,-0.6924,-0.6915,-0.6907,-0.686,-0.6833,-0.6827,-0.6802,-0.6796,-0.6791,-0.6768,-0.6752,-0.6701,-0.6703,-0.6695,-0.6692,-0.6642,-0.6642,-0.6642,-0.6667,-0.6669,-0.6671,0,0,0,0,0,0,-0.6962,-0.6919,-0.6908,-0.6888,-0.6864,-0.6827,-0.682,-0.6805,-0.6782,-0.6781,-0.6751,-0.6743,-0.6724,-0.6706,-0.6708,-0.6679,-0.667,-0.6669,-0.6691,-0.6693,-0.6694,-0.6699,-0.6687,0,0,0,0,0,-0.6966,-0.6948,-0.6911,-0.6897,-0.6886,-0.6855,-0.6842,-0.6825,-0.6799,-0.6789,-0.6764,-0.674,-0.6718,-0.6705,-0.6683,-0.6665,-0.6656,-0.6659,-0.6661,-0.6663,-0.6662,-0.6651,-0.6652,-0.6643,-0.6643,-0.6643,0,0,-0.6975,-0.6949,-0.6939,-0.6903,-0.6882,-0.6863,-0.6847,-0.6828,-0.6814,-0.6786,-0.6764,-0.6745,-0.6716,-0.6696,-0.6686,-0.668,-0.6662,-0.6663,-0.6664,-0.6662,-0.6651,-0.6652,-0.6653,-0.6643,-0.6643,-0.6643,0,0,-0.698,-0.6959,-0.6945,-0.6925,-0.6895,-0.6874,-0.6871,-0.6836,-0.6823,-0.68,-0.6779,-0.6762,-0.6725,-0.6705,-0.669,-0.6689,-0.6673,-0.6682,-0.6691,-0.6681,-0.6682,-0.6682,-0.6681,-0.6681,-0.6682,-0.6682,-0.6682,0,-0.6995,-0.6966,-0.694,-0.6922,-0.6906,-0.6881,-0.6866,-0.6848,-0.6812,-0.6802,-0.6797,-0.675,-0.6729,-0.6704,-0.6703,-0.6692,-0.6687,-0.6686,-0.6684,-0.6684,-0.6684,-0.6683,-0.6683,-0.6683,-0.6683,-0.6683,-0.6683,0,-0.6985,-0.6965,-0.6957,-0.6923,-0.6907,-0.6891,-0.6862,-0.6849,-0.6833,-0.6814,-0.6791,-0.6764,-0.6736,-0.6729,-0.6714,-0.6702,-0.67,-0.669,-0.668,-0.6686,-0.6685,-0.6684,-0.6685,-0.6684,-0.6684,-0.6684,0,0,-0.7007,-0.6959,-0.6957,-0.6941,-0.6905,-0.689,-0.6873,-0.6845,-0.6834,-0.6811,-0.6795,-0.6765,-0.6756,-0.6739,-0.6721,-0.6712,-0.6712,-0.6703,-0.6701,-0.6705,-0.6697,-0.6705,-0.6704,-0.6702,-0.6702,-0.6702,-0.6699,0,-0.7008,-0.6975,-0.6952,-0.6928,-0.691,-0.6886,-0.6871,-0.6847,-0.6829,-0.681,-0.6789,-0.6768,-0.6757,-0.6747,-0.6737,-0.6714,-0.671,-0.6714,-0.6687,-0.6687,-0.6695,-0.6704,-0.6711,-0.671,-0.6699,-0.6699,-0.6698,0,-0.7004,-0.6981,-0.6956,-0.6922,-0.6914,-0.69,-0.6874,-0.6856,-0.683,-0.6816,-0.6798,-0.6779,-0.676,-0.6753,-0.6726,-0.6729,-0.6717,-0.6704,-0.6704,-0.67,-0.6692,-0.6699,-0.6709,-0.6709,-0.6697,-0.6697,-0.6697,0,-0.7022,-0.6985,-0.6965,-0.6952,-0.6913,-0.6904,-0.6887,-0.686,-0.6846,-0.6822,-0.6812,-0.6787,-0.6774,-0.6755,-0.673,-0.6727,-0.6705,-0.6696,-0.6694,-0.6694,-0.6689,-0.669,-0.6697,-0.6683,-0.6683,-0.6683,-0.6683,0,-0.7025,-0.701,-0.6973,-0.696,-0.6943,-0.6916,-0.69,-0.6882,-0.6858,-0.6841,-0.6819,-0.6804,-0.6773,-0.6754,-0.6735,-0.6715,-0.6709,-0.6698,-0.6693,-0.67,-0.6701,-0.6691,-0.669,-0.6683,-0.6683,-0.6683,-0.6683,0,-0.7042,-0.7016,-0.6993,-0.6958,-0.6948,-0.6937,-0.6907,-0.6894,-0.6875,-0.6854,-0.6848,-0.6817,-0.6793,-0.6767,-0.6735,-0.6722,-0.6704,-0.6697,-0.6713,-0.671,-0.6709,-0.6709,-0.6709,-0.6707,-0.6695,-0.6695,-0.6695,0,-0.7045,-0.7033,-0.6997,-0.6984,-0.6968,-0.6948,-0.6933,-0.6906,-0.6891,-0.686,-0.6851,-0.6826,-0.6805,-0.6769,-0.6743,-0.6719,-0.6711,-0.6712,-0.6707,-0.6714,-0.671,-0.6711,-0.6709,-0.6714,-0.6714,-0.6714,-0.6714,0,-0.7053,-0.7041,-0.702,-0.6995,-0.6977,-0.6956,-0.6934,-0.6925,-0.6893,-0.6878,-0.6854,-0.6837,-0.6805,-0.6781,-0.6753,-0.6736,-0.672,-0.6717,-0.6714,-0.6721,-0.673,-0.6725,-0.6717,-0.6716,-0.6716,-0.6716,-0.6716,-0.6716,-0.7063,-0.7051,-0.7024,-0.7001,-0.6982,-0.6961,-0.6948,-0.6926,-0.6906,-0.6877,-0.6863,-0.6839,-0.6812,-0.6774,-0.6757,-0.6738,-0.6733,-0.673,-0.6729,-0.6729,-0.673,-0.6734,-0.6733,-0.6733,-0.6733,-0.6733,-0.6732,0,-0.707,-0.7051,-0.703,-0.7,-0.6982,-0.6969,-0.6944,-0.693,-0.6909,-0.6886,-0.6865,-0.6838,-0.6814,-0.6787,-0.6761,-0.6751,-0.6743,-0.6745,-0.6746,-0.6742,-0.6737,-0.6741,-0.6752,-0.6752,-0.6752,-0.6752,-0.6752,-0.6752,-0.7071,-0.7051,-0.7035,-0.7005,-0.6986,-0.6962,-0.6949,-0.693,-0.6911,-0.6882,-0.6862,-0.6844,-0.6819,-0.6792,-0.677,-0.6762,-0.6754,-0.6758,-0.6748,-0.6744,-0.6742,-0.6741,-0.6744,-0.6756,-0.6756,-0.6755,-0.6755,-0.6755]},{"header":{"parameterUnit":"m.s-1","parameterCategory":1,"la1":30.2991,"la2":30.254,"lo1":-89.0895,"lo2":-89.0444,"dy":0.0017,"dx":0.0017,"nx":28,"ny":28,"refTime":"2025-02-08T03:00:00:Z","depth":0,"parameterNumber":3,"parameterNumberName":"V-component_of_WINDS"},"data":[0,0,0,0,0,0,0,0,0,0,0,0,0,0,0,0,0,0,0,0,0,0,0,0,0,0,0,0,0,0,0,0,0,0,0,0,0,0,0,0,0,0,0,0,0,0,0,0,0,0,0,0,0,0,0,0,0,0,2.1993,2.1993,0,2.198,2.198,2.198,2.1994,2.1994,2.1995,2.1995,2.1978,2.1977,2.1976,0,0,0,0,0,0,0,0,0,0,0,0,0,2.2026,2.2025,2.1993,2.1993,2.1993,2.198,2.198,2.198,2.1993,2.1994,2.1995,2.1995,2.1978,2.1977,2.1976,0,0,0,0,0,0,0,0,0,0,0,0,0,2.2012,2.2025,2.1993,2.1998,2.1998,2.198,2.198,2.198,2.1993,2.1994,2.1995,2.1996,2.1978,2.1977,2.1976,2.195,0,0,2.1971,2.197,0,0,0,0,0,0,0,0,2.2013,2.2011,2.1997,2.1998,2.1998,2.1989,2.1985,2.197,2.1993,2.1995,2.1995,2.1996,2.1981,2.1979,2.1975,2.1949,2.1948,2.1971,2.197,2.1969,2.1969,0,0,0,0,0,0,0,2.2014,2.2011,2.1988,2.1997,2.1998,2.2,2.1999,2.1982,2.1983,2.1995,2.1996,2.1995,2.1981,2.1976,2.1974,2.1948,2.1971,2.197,2.1969,2.1968,2.1902,2.1901,0,0,0,0,0,0,2.2015,2.2012,2.1988,2.1987,2.2008,2.1999,2.1997,2.1991,2.1984,2.1983,2.1994,2.1995,2.1978,2.1976,2.1974,2.1944,2.1969,2.1968,2.1967,2.1902,2.1901,2.19,0,0,0,0,0,0,2.2015,2.2013,2.1989,2.2,2.1997,2.1997,2.199,2.1991,2.1986,2.1983,2.1983,2.1989,2.1979,2.1976,2.1956,2.1943,2.1967,2.1966,2.1903,2.1902,2.1901,2.1884,0,0,0,0,0,0,2.2016,2.2013,2.2004,2.2,2.1997,2.1972,2.1989,2.199,2.1984,2.1985,2.1978,2.1978,2.1979,2.1958,2.1955,2.1942,2.1965,2.1905,2.1903,2.1901,2.1885,2.1882,2.1879,0,0,0,0,0,2.2017,2.1998,2.2003,2.2,2.1986,2.1972,2.197,2.1973,2.1983,2.1973,2.1971,2.1978,2.1945,2.1956,2.1952,2.1939,2.1905,2.1903,2.1901,2.1887,2.1883,2.1879,0,0,0,0,0,0,2.1999,2.1998,2.2003,2.1983,2.1977,2.1974,2.1962,2.1968,2.1959,2.1961,2.1964,2.1962,2.1942,2.1938,2.195,2.1914,2.1927,2.1924,2.1917,2.1913,2.191,2.1911,2.1964,0,0,0,0,0,2.1993,2.1983,2.1982,2.1964,2.1961,2.1962,2.1956,2.1959,2.1953,2.1951,2.1947,2.194,2.1928,2.192,2.1909,2.1885,2.1883,2.1874,2.187,2.1868,2.1865,2.1852,2.1848,2.1894,2.1894,2.1894,0,0,2.198,2.1978,2.1971,2.196,2.1956,2.1945,2.196,2.1947,2.1938,2.1948,2.193,2.1927,2.1919,2.1897,2.1887,2.1894,2.1852,2.1865,2.1863,2.1862,2.185,2.1845,2.1841,2.1892,2.1893,2.1893,0,0,2.195,2.1948,2.1933,2.1929,2.1924,2.1925,2.1921,2.1917,2.1916,2.1898,2.1905,2.1894,2.1874,2.1868,2.1863,2.1831,2.1837,2.1827,2.181,2.1798,2.1794,2.1791,2.178,2.1776,2.1825,2.1825,2.1825,0,2.1934,2.1918,2.1924,2.1911,2.1905,2.1915,2.19,2.1895,2.1886,2.1882,2.1889,2.1865,2.186,2.1837,2.1829,2.1824,2.182,2.1828,2.1794,2.1791,2.1788,2.1778,2.1774,2.1824,2.1824,2.1824,2.1824,0,2.1898,2.1887,2.1876,2.1868,2.1862,2.1847,2.185,2.1842,2.1846,2.1846,2.1827,2.1822,2.1811,2.1805,2.1808,2.1783,2.1787,2.1794,2.1807,2.1783,2.1773,2.1769,2.1822,2.1822,2.1823,2.1823,0,0,2.1856,2.1853,2.1849,2.1846,2.1841,2.1832,2.1817,2.1808,2.1801,2.1794,2.1782,2.1765,2.1772,2.1766,2.1768,2.1757,2.1733,2.1766,2.1766,2.176,2.1704,2.1699,2.1694,2.1737,2.1736,2.1735,2.1705,0,2.1827,2.1804,2.1809,2.1786,2.1775,2.1785,2.1772,2.1767,2.1767,2.1757,2.1756,2.1744,2.1754,2.1751,2.174,2.1738,2.1722,2.174,2.1724,2.1724,2.1726,2.1689,2.1683,2.1655,2.1701,2.1701,2.17,0,2.1789,2.1783,2.1759,2.1757,2.1752,2.1741,2.1733,2.1724,2.1718,2.1718,2.1712,2.1716,2.1701,2.1715,2.1694,2.1706,2.17,2.1698,2.1697,2.1695,2.1711,2.1687,2.1646,2.1642,2.1694,2.1695,2.1695,0,2.1761,2.1747,2.1731,2.1728,2.1724,2.1716,2.1714,2.1709,2.1703,2.1695,2.1692,2.1681,2.1676,2.1667,2.1669,2.1678,2.1647,2.166,2.1646,2.1646,2.1639,2.164,2.1597,2.1635,2.1635,2.1635,2.1635,0,2.1728,2.1713,2.1718,2.1709,2.1692,2.1697,2.168,2.1679,2.1675,2.1665,2.1671,2.1661,2.1664,2.1653,2.1654,2.1636,2.1633,2.1633,2.1633,2.1632,2.1632,2.1628,2.163,2.1634,2.1634,2.1634,2.1634,0,2.1694,2.1697,2.1681,2.1679,2.1678,2.1666,2.1664,2.1655,2.1655,2.1642,2.1639,2.1639,2.1627,2.1627,2.1613,2.1614,2.1592,2.1594,2.1594,2.1595,2.1581,2.1582,2.1535,2.1529,2.157,2.1569,2.1569,0,2.1673,2.1662,2.1659,2.1654,2.1652,2.1642,2.1636,2.164,2.1634,2.1627,2.1618,2.1607,2.1599,2.1579,2.1577,2.1566,2.1568,2.1552,2.1567,2.1566,2.1568,2.1569,2.1568,2.1549,2.1549,2.1549,2.1548,0,2.1634,2.1637,2.1629,2.1622,2.1615,2.1609,2.1604,2.1599,2.1602,2.1595,2.1583,2.1577,2.1563,2.1552,2.1542,2.1538,2.1544,2.1544,2.154,2.1539,2.154,2.154,2.1587,2.1545,2.1545,2.1546,2.1546,2.1546,2.1606,2.1597,2.1595,2.1586,2.1583,2.1578,2.1569,2.1569,2.156,2.155,2.1553,2.154,2.1535,2.1522,2.1518,2.1507,2.1512,2.1507,2.1505,2.1504,2.1503,2.1542,2.1505,2.1505,2.1505,2.1505,2.1505,0,2.1569,2.1568,2.156,2.1553,2.1546,2.1553,2.1548,2.1541,2.153,2.1525,2.1517,2.1504,2.1493,2.1491,2.148,2.1472,2.1474,2.1469,2.147,2.1469,2.1498,2.1503,2.1468,2.1468,2.1468,2.1468,2.1468,2.1468,2.1548,2.1534,2.1536,2.1519,2.1518,2.1507,2.1503,2.1499,2.1495,2.1481,2.1472,2.1471,2.1467,2.1457,2.1447,2.1446,2.1442,2.1436,2.1436,2.1463,2.1467,2.1471,2.1475,2.1435,2.1435,2.1408,2.1408,2.1408]}]]